Custer, SD

6:39 AM MST on December 05, 2016 (GMT -0700)
Custer County

Weather History for KCUT - July, 2013

Change the Weather History Date:

Wednesday, July 10, 2013

  Actual Average Record
Temperature  
Mean Temperature 68 °F 66 °F  
Max Temperature 85 °F 79 °F 96 °F (1954)
Min Temperature 50 °F 52 °F 39 °F (1999)
Degree Days  
Heating Degree Days 0 2  
Month to date heating degree days 10 24  
Since 1 June heating degree days 203 244  
Since 1 July heating degree days 10 24  
Cooling Degree Days 3 2  
Month to date cooling degree days 12 20  
Year to date cooling degree days 23 46  
Since 1 June cooling degree days 21 45  
Growing Degree Days 18 (Base 50)    
Moisture  
Dew Point 52 °F    
Average Humidity 81    
Maximum Humidity 89    
Minimum Humidity 72    
Precipitation  
Precipitation 0.00 in 0.08 in 0.65 in (1948)
Month to date precipitation 2.18 0.76  
Year to date precipitation 10.36 11.09  
Sea Level Pressure  
Sea Level Pressure 30.07 in    
Wind  
Wind Speed 5 mph (SE)    
Max Wind Speed 16 mph    
Max Gust Speed 22 mph    
Visibility 10 miles    
Events      
T = Trace of Precipitation, MM = Missing Value Source: NWS Daily Summary

Daily Weather History Graph

Daily Weather History Graph

Search for Another Location

Airport or City:

Trip Planner

Search our weather history database for the weather conditions in past years. The results will help you decide how hot, cold, wet, or windy it might be!

Date:

Astronomy

Jul. 10, 2013 Rise Set
Actual Time 5:22 AM MDT 8:36 PM MDT
Civil Twilight 4:47 AM MDT 9:11 PM MDT
Nautical Twilight 4:01 AM MDT 9:57 PM MDT
Astronomical Twilight 3:06 AM MDT 10:52 PM MDT
Moon 7:52 AM MDT (7/10) 9:40 PM MDT (7/10)
Length of Visible Light 16h 24m
Length of Day
15h 14m
Waxing Crescent, 5% of the Moon is Illuminated
Jul 10
Waxing Crescent
Jul 15
First Quarter
Jul 22
Full
Jul 29
Last Quarter
Aug 6
New

Hourly Weather History & Observations

Time (MDT) Temp. Heat Index Dew Point Humidity Pressure Visibility Wind Dir Wind Speed Gust Speed Precip Events Conditions
12:53 AM 57.9 °F - 48.0 °F 70% 30.14 in 10.0 mi NE 5.8 mph - N/A   Clear
1:53 AM 55.0 °F - 48.0 °F 77% 30.14 in 10.0 mi NNE 4.6 mph - N/A   Clear
2:53 AM 54.0 °F - 48.0 °F 80% 30.15 in 10.0 mi NE 3.5 mph - N/A   Clear
3:53 AM 51.1 °F - 48.0 °F 89% 30.14 in 10.0 mi NNE 3.5 mph - N/A   Clear
4:53 AM 51.1 °F - 48.0 °F 89% 30.14 in 10.0 mi Calm Calm - N/A   Clear
5:53 AM 51.1 °F - 48.0 °F 89% 30.14 in 10.0 mi Calm Calm - N/A   Clear
6:53 AM 57.0 °F - 51.1 °F 81% 30.12 in 10.0 mi Calm Calm - N/A   Scattered Clouds
7:53 AM 63.0 °F - 55.0 °F 75% 30.12 in 10.0 mi South 4.6 mph - N/A   Unknown
8:18 AM 64.4 °F - 55.4 °F 73% 30.29 in 10.0 mi Variable 3.5 mph - N/A   Mostly Cloudy
8:26 AM 64.4 °F - 55.4 °F 73% 30.28 in 10.0 mi SSE 6.9 mph - N/A   Scattered Clouds
8:53 AM 66.0 °F - 55.9 °F 70% 30.10 in 10.0 mi Variable 5.8 mph - N/A   Partly Cloudy
9:53 AM 66.9 °F - 55.9 °F 68% 30.10 in 10.0 mi South 6.9 mph - N/A   Scattered Clouds
10:53 AM 72.0 °F - 57.9 °F 61% 30.07 in 10.0 mi SSE 9.2 mph - N/A   Clear
11:53 AM 73.9 °F - 55.9 °F 53% 30.05 in 10.0 mi South 10.4 mph - N/A   Clear
12:53 PM 75.9 °F - 55.9 °F 50% 30.04 in 10.0 mi South 12.7 mph 20.7 mph N/A   Clear
1:53 PM 78.1 °F - 57.0 °F 48% 30.03 in 10.0 mi Variable 6.9 mph 17.3 mph N/A   Clear
2:53 PM 80.1 °F 80.2 °F 55.9 °F 43% 30.01 in 10.0 mi SSW 8.1 mph 17.3 mph N/A   Scattered Clouds
3:53 PM 82.0 °F 81.6 °F 55.9 °F 41% 29.99 in 10.0 mi Variable 6.9 mph 17.3 mph N/A   Partly Cloudy
4:53 PM 82.9 °F - 50.0 °F 32% 29.97 in 10.0 mi South 10.4 mph - N/A   Clear
5:53 PM 84.0 °F - 42.1 °F 23% 29.94 in 10.0 mi Calm Calm - N/A   Clear
6:53 PM 78.1 °F - 53.1 °F 42% 29.95 in 10.0 mi East 12.7 mph - N/A   Clear
7:53 PM 73.0 °F - 53.1 °F 49% 29.96 in 10.0 mi East 3.5 mph - N/A   Clear
8:53 PM 70.0 °F - 52.0 °F 53% 29.96 in 10.0 mi Calm Calm - N/A   Clear
9:53 PM 68.0 °F - 53.1 °F 59% 29.99 in 10.0 mi Calm Calm - N/A   Clear
10:53 PM 64.0 °F - 53.1 °F 67% 29.99 in 10.0 mi Calm Calm - N/A   Clear
11:53 PM 62.1 °F - 53.1 °F 72% 29.99 in 10.0 mi Calm Calm - N/A   Clear